Location: Unspecified
(48.1170°N, 0.0000°E)
Time: 05:47:08
(UTC+00:00)

JY1SAT - Pass Details

Date: 18 September 2019
Orbit: 572 x 591 km, 97.7° (Epoch: 15 October)

Event Time Altitude Azimuth Distance (km) Brightness Sun altitude
Exits shadow 20:40:30 15° 30° (NNE) 1,593 ? -24.9°
Drops below altitude 10° 20:41:38 10° 17° (NNE) 1,894 ? -25.0°
Sets 20:44:14 0° 360° (N) 2,800 ? -25.4°
